Time,TemperatureF,DewpointF,PressureIn,WindDirection,WindDirectionDegrees,WindSpeedMPH,WindSpeedGustMPH,Humidity,HourlyPrecipIn,Conditions,Clouds,dailyrainin,SolarRadiationWatts/m^2,SoftwareType,DateUTC
2013-04-19 00:02:00,50.6,48.7,30.12,SE,133,9.0,17.0,93,0.00,,,0.00,0,Wunderground v.1.15,2013-04-19 04:02:00,
2013-04-19 00:07:00,50.6,48.9,30.11,SE,134,8.0,17.0,94,0.00,,,0.00,0,Wunderground v.1.15,2013-04-19 04:07:00,
2013-04-19 00:17:00,50.5,48.8,30.11,ESE,109,7.0,17.0,94,0.00,,,0.00,0,Wunderground v.1.15,2013-04-19 04:17:00,
2013-04-19 00:22:00,50.6,48.9,30.11,South,173,7.0,17.0,94,0.00,,,0.00,0,Wunderground v.1.15,2013-04-19 04:22:00,
2013-04-19 00:27:00,50.8,49.1,30.11,SE,129,8.0,8.0,94,0.00,,,0.00,0,Wunderground v.1.15,2013-04-19 04:27:00,
2013-04-19 00:37:00,50.6,49.2,30.11,SE,131,6.0,17.0,95,0.00,,,0.00,0,Wunderground v.1.15,2013-04-19 04:37:00,
2013-04-19 00:42:00,50.7,49.3,30.11,SSE,159,7.0,17.0,95,0.00,,,0.00,0,Wunderground v.1.15,2013-04-19 04:42:00,
2013-04-19 00:52:00,50.7,49.3,30.10,ESE,119,6.0,18.0,95,0.00,,,0.00,0,Wunderground v.1.15,2013-04-19 04:52:00,
2013-04-19 01:02:00,50.9,49.5,30.10,ESE,113,7.0,18.0,95,0.00,,,0.00,0,Wunderground v.1.15,2013-04-19 05:02:00,
2013-04-19 01:12:00,51.2,49.8,30.09,ESE,102,6.0,18.0,95,0.00,,,0.00,0,Wunderground v.1.15,2013-04-19 05:12:00,
2013-04-19 01:22:00,51.5,50.4,30.09,SE,142,7.0,17.0,96,0.00,,,0.00,0,Wunderground v.1.15,2013-04-19 05:22:00,
2013-04-19 01:27:00,51.4,50.3,30.09,ESE,104,7.0,17.0,96,0.00,,,0.00,0,Wunderground v.1.15,2013-04-19 05:27:00,
2013-04-19 01:37:00,51.3,50.2,30.08,SSE,153,7.0,7.0,96,0.00,,,0.00,0,Wunderground v.1.15,2013-04-19 05:37:00,
2013-04-19 01:47:00,51.3,50.2,30.08,SSE,156,7.0,7.0,96,0.00,,,0.00,0,Wunderground v.1.15,2013-04-19 05:47:00,
2013-04-19 01:57:00,51.5,50.4,30.07,ESE,108,7.0,14.0,96,0.00,,,0.00,0,Wunderground v.1.15,2013-04-19 05:57:00,
2013-04-19 02:02:00,51.5,50.4,30.07,ESE,113,8.0,14.0,96,0.00,,,0.00,0,Wunderground v.1.15,2013-04-19 06:02:00,
2013-04-19 02:12:00,51.3,50.2,30.06,SE,136,7.0,14.0,96,0.00,,,0.00,0,Wunderground v.1.15,2013-04-19 06:12:00,
2013-04-19 02:22:00,51.6,50.5,30.06,SSE,152,7.0,15.0,96,0.00,,,0.00,0,Wunderground v.1.15,2013-04-19 06:22:00,
2013-04-19 02:32:00,51.4,50.3,30.06,SE,144,8.0,11.0,96,0.00,,,0.00,0,Wunderground v.1.15,2013-04-19 06:32:00,
2013-04-19 02:42:00,51.3,50.2,30.05,SE,131,8.0,15.0,96,0.00,,,0.00,0,Wunderground v.1.15,2013-04-19 06:42:00,
2013-04-19 02:52:00,51.1,50.0,30.05,SE,124,7.0,15.0,96,0.00,,,0.00,0,Wunderground v.1.15,2013-04-19 06:52:00,
2013-04-19 03:02:00,51.0,49.9,30.04,SE,145,7.0,9.0,96,0.00,,,0.00,0,Wunderground v.1.15,2013-04-19 07:02:00,
2013-04-19 03:12:00,51.1,50.0,30.04,ESE,105,7.0,15.0,96,0.00,,,0.00,0,Wunderground v.1.15,2013-04-19 07:12:00,
2013-04-19 03:22:00,51.0,49.9,30.03,SE,126,7.0,16.0,96,0.00,,,0.00,0,Wunderground v.1.15,2013-04-19 07:22:00,
2013-04-19 03:27:00,51.1,50.0,30.03,SE,140,6.0,16.0,96,0.00,,,0.00,0,Wunderground v.1.15,2013-04-19 07:27:00,
2013-04-19 03:37:00,50.8,50.0,30.03,ESE,123,5.0,16.0,97,0.00,,,0.00,0,Wunderground v.1.15,2013-04-19 07:37:00,
2013-04-19 03:42:00,50.6,49.8,30.03,SSE,157,5.0,16.0,97,0.00,,,0.00,0,Wunderground v.1.15,2013-04-19 07:42:00,
2013-04-19 03:52:00,50.6,49.8,30.03,SSE,151,6.0,16.0,97,0.00,,,0.00,0,Wunderground v.1.15,2013-04-19 07:52:00,
2013-04-19 04:02:00,50.0,49.2,30.02,SE,146,6.0,12.0,97,0.00,,,0.00,0,Wunderground v.1.15,2013-04-19 08:02:00,
2013-04-19 04:12:00,49.9,49.1,30.03,SE,134,6.0,10.0,97,0.00,,,0.00,0,Wunderground v.1.15,2013-04-19 08:12:00,
2013-04-19 04:22:00,50.1,49.3,30.03,South,173,5.0,12.0,97,0.00,,,0.00,0,Wunderground v.1.15,2013-04-19 08:22:00,
2013-04-19 04:27:00,50.3,49.5,30.03,SSE,159,6.0,6.0,97,0.00,,,0.00,0,Wunderground v.1.15,2013-04-19 08:27:00,
2013-04-19 04:37:00,50.3,49.5,30.02,SE,129,5.0,12.0,97,0.00,,,0.00,0,Wunderground v.1.15,2013-04-19 08:37:00,
2013-04-19 04:47:00,50.0,49.2,30.01,SSE,150,6.0,6.0,97,0.00,,,0.00,0,Wunderground v.1.15,2013-04-19 08:47:00,
2013-04-19 04:57:00,50.1,49.3,30.01,East,97,7.0,7.0,97,0.00,,,0.00,0,Wunderground v.1.15,2013-04-19 08:57:00,
2013-04-19 05:02:00,50.2,49.4,30.01,South,170,7.0,12.0,97,0.00,,,0.00,0,Wunderground v.1.15,2013-04-19 09:02:00,
2013-04-19 05:12:00,50.7,49.9,30.01,SE,132,7.0,12.0,97,0.00,,,0.00,0,Wunderground v.1.15,2013-04-19 09:12:00,
2013-04-19 05:22:00,50.7,49.9,30.01,SSE,167,7.0,13.0,97,0.00,,,0.00,0,Wunderground v.1.15,2013-04-19 09:22:00,
2013-04-19 05:32:00,50.9,50.1,30.01,SE,142,6.0,13.0,97,0.00,,,0.00,0,Wunderground v.1.15,2013-04-19 09:32:00,
2013-04-19 05:42:00,50.5,49.7,30.01,ESE,118,5.0,9.0,97,0.00,,,0.00,0,Wunderground v.1.15,2013-04-19 09:42:00,
2013-04-19 05:52:00,50.1,49.3,30.00,SE,131,5.0,13.0,97,0.00,,,0.00,0,Wunderground v.1.15,2013-04-19 09:52:00,
2013-04-19 06:02:00,50.5,49.7,30.00,ESE,119,5.0,13.0,97,0.00,,,0.00,0,Wunderground v.1.15,2013-04-19 10:02:00,
2013-04-19 06:12:00,50.0,49.2,30.01,ESE,114,4.0,7.0,97,0.00,,,0.00,9,Wunderground v.1.15,2013-04-19 10:12:00,
2013-04-19 06:22:00,50.1,49.3,30.00,SE,137,4.0,6.0,97,0.00,,,0.00,18,Wunderground v.1.15,2013-04-19 10:22:00,
2013-04-19 06:32:00,50.4,49.6,30.00,SE,130,5.0,11.0,97,0.00,,,0.00,35,Wunderground v.1.15,2013-04-19 10:32:00,
2013-04-19 06:42:00,50.9,50.1,30.00,SE,129,6.0,12.0,97,0.00,,,0.00,63,Wunderground v.1.15,2013-04-19 10:42:00,
2013-04-19 06:52:00,50.9,50.1,30.00,SSE,161,8.0,14.0,97,0.00,,,0.00,77,Wunderground v.1.15,2013-04-19 10:52:00,
2013-04-19 07:02:00,51.2,50.4,30.00,SE,133,7.0,14.0,97,0.00,,,0.00,116,Wunderground v.1.15,2013-04-19 11:02:00,
2013-04-19 07:12:00,51.7,50.9,30.01,SE,132,7.0,14.0,97,0.00,,,0.00,77,Wunderground v.1.15,2013-04-19 11:12:00,
2013-04-19 07:22:00,51.5,50.7,30.00,South,171,8.0,14.0,97,0.00,,,0.00,176,Wunderground v.1.15,2013-04-19 11:22:00,
2013-04-19 07:32:00,51.6,50.8,30.00,SE,142,9.0,9.0,97,0.00,,,0.00,176,Wunderground v.1.15,2013-04-19 11:32:00,
2013-04-19 07:37:00,51.8,51.0,30.00,SSE,154,9.0,14.0,97,0.00,,,0.00,163,Wunderground v.1.15,2013-04-19 11:37:00,
2013-04-19 07:47:00,52.5,51.7,30.00,SE,135,11.0,11.0,97,0.00,,,0.00,165,Wunderground v.1.15,2013-04-19 11:47:00,
2013-04-19 07:57:00,52.8,52.3,30.00,SE,142,10.0,19.0,98,0.00,,,0.00,88,Wunderground v.1.15,2013-04-19 11:57:00,
2013-04-19 08:07:00,53.3,52.5,30.00,SSE,164,10.0,10.0,97,0.00,,,0.00,253,Wunderground v.1.15,2013-04-19 12:07:00,
2013-04-19 08:17:00,53.2,52.4,30.00,ESE,122,11.0,11.0,97,0.00,,,0.00,209,Wunderground v.1.15,2013-04-19 12:17:00,
2013-04-19 08:27:00,53.2,52.4,30.00,SE,132,9.0,9.0,97,0.00,,,0.00,234,Wunderground v.1.15,2013-04-19 12:27:00,
2013-04-19 08:37:00,53.3,52.5,29.99,SE,143,10.0,10.0,97,0.00,,,0.00,236,Wunderground v.1.15,2013-04-19 12:37:00,
2013-04-19 08:47:00,53.2,52.4,29.99,SSE,150,10.0,20.0,97,0.00,,,0.00,206,Wunderground v.1.15,2013-04-19 12:47:00,
2013-04-19 08:52:00,52.9,52.1,29.99,SE,138,10.0,20.0,97,0.00,,,0.00,397,Wunderground v.1.15,2013-04-19 12:52:00,
2013-04-19 09:02:00,53.2,52.4,29.99,SSE,159,11.0,19.0,97,0.00,,,0.00,243,Wunderground v.1.15,2013-04-19 13:02:00,
2013-04-19 09:12:00,53.3,52.5,29.98,ESE,119,10.0,19.0,97,0.00,,,0.00,427,Wunderground v.1.15,2013-04-19 13:12:00,
2013-04-19 09:17:00,53.4,52.6,29.98,South,170,11.0,11.0,97,0.00,,,0.00,360,Wunderground v.1.15,2013-04-19 13:17:00,
2013-04-19 09:27:00,53.5,52.7,29.98,SE,128,10.0,22.0,97,0.00,,,0.00,461,Wunderground v.1.15,2013-04-19 13:27:00,
2013-04-19 09:37:00,53.7,52.9,29.98,SSE,154,10.0,10.0,97,0.00,,,0.00,461,Wunderground v.1.15,2013-04-19 13:37:00,
2013-04-19 09:47:00,54.4,53.6,29.98,SE,143,10.0,10.0,97,0.00,,,0.00,529,Wunderground v.1.15,2013-04-19 13:47:00,
2013-04-19 09:57:00,53.7,52.9,29.98,SE,144,10.0,21.0,97,0.00,,,0.00,513,Wunderground v.1.15,2013-04-19 13:57:00,
2013-04-19 10:07:00,53.7,52.9,29.98,SE,131,10.0,21.0,97,0.00,,,0.00,204,Wunderground v.1.15,2013-04-19 14:07:00,
2013-04-19 10:17:00,53.7,52.9,29.98,SE,139,10.0,21.0,97,0.00,,,0.00,657,Wunderground v.1.15,2013-04-19 14:17:00,
2013-04-19 10:27:00,54.7,53.9,29.97,SE,144,10.0,10.0,97,0.00,,,0.00,731,Wunderground v.1.15,2013-04-19 14:27:00,
2013-04-19 10:37:00,55.0,53.9,29.97,SE,146,10.0,19.0,96,0.00,,,0.00,684,Wunderground v.1.15,2013-04-19 14:37:00,
2013-04-19 10:47:00,55.0,53.6,29.97,East,99,10.0,10.0,95,0.00,,,0.00,371,Wunderground v.1.15,2013-04-19 14:47:00,
2013-04-19 10:57:00,55.3,53.9,29.96,SSE,154,11.0,22.0,95,0.00,,,0.00,533,Wunderground v.1.15,2013-04-19 14:57:00,
2013-04-19 11:02:00,56.0,54.6,29.96,ESE,116,11.0,22.0,95,0.00,,,0.00,861,Wunderground v.1.15,2013-04-19 15:02:00,
2013-04-19 11:12:00,55.5,53.5,29.96,ESE,117,11.0,22.0,93,0.00,,,0.00,299,Wunderground v.1.15,2013-04-19 15:12:00,
2013-04-19 11:22:00,54.4,52.7,29.95,ESE,113,10.0,23.0,94,0.00,,,0.00,622,Wunderground v.1.15,2013-04-19 15:22:00,
2013-04-19 11:32:00,55.2,53.5,29.95,SE,135,12.0,23.0,94,0.00,,,0.00,380,Wunderground v.1.15,2013-04-19 15:32:00,
2013-04-19 11:37:00,55.2,53.5,29.94,SSE,165,12.0,12.0,94,0.00,,,0.00,622,Wunderground v.1.15,2013-04-19 15:37:00,
2013-04-19 11:47:00,55.8,54.1,29.94,South,180,12.0,12.0,94,0.00,,,0.00,598,Wunderground v.1.15,2013-04-19 15:47:00,
2013-04-19 11:57:00,56.2,54.5,29.94,SE,126,11.0,25.0,94,0.00,,,0.00,601,Wunderground v.1.15,2013-04-19 15:57:00,
2013-04-19 12:07:00,55.7,53.7,29.93,SE,142,12.0,12.0,93,0.00,,,0.00,872,Wunderground v.1.15,2013-04-19 16:07:00,
2013-04-19 12:17:00,57.0,55.0,29.93,SE,145,10.0,25.0,93,0.00,,,0.00,879,Wunderground v.1.15,2013-04-19 16:17:00,
2013-04-19 12:27:00,56.4,54.1,29.92,SSE,150,12.0,24.0,92,0.00,,,0.00,612,Wunderground v.1.15,2013-04-19 16:27:00,
2013-04-19 12:37:00,56.6,54.6,29.92,SSE,153,12.0,24.0,93,0.00,,,0.00,696,Wunderground v.1.15,2013-04-19 16:37:00,
2013-04-19 12:47:00,56.1,53.8,29.91,ESE,118,13.0,24.0,92,0.00,,,0.00,555,Wunderground v.1.15,2013-04-19 16:47:00,
2013-04-19 12:57:00,56.3,54.3,29.91,SSE,153,13.0,13.0,93,0.00,,,0.00,752,Wunderground v.1.15,2013-04-19 16:57:00,
2013-04-19 13:02:00,56.6,54.6,29.91,South,178,13.0,23.0,93,0.00,,,0.00,461,Wunderground v.1.15,2013-04-19 17:02:00,
2013-04-19 13:12:00,56.4,54.4,29.90,SE,138,13.0,17.0,93,0.00,,,0.00,513,Wunderground v.1.15,2013-04-19 17:12:00,
2013-04-19 13:22:00,56.1,53.8,29.90,SSE,156,13.0,24.0,92,0.00,,,0.00,329,Wunderground v.1.15,2013-04-19 17:22:00,
2013-04-19 13:32:00,55.8,53.8,29.90,SE,144,11.0,24.0,93,0.00,,,0.00,297,Wunderground v.1.15,2013-04-19 17:32:00,
2013-04-19 13:42:00,55.9,54.2,29.90,SE,144,11.0,24.0,94,0.00,,,0.00,130,Wunderground v.1.15,2013-04-19 17:42:00,
2013-04-19 13:52:00,55.8,54.4,29.89,SE,138,13.0,24.0,95,0.00,,,0.00,264,Wunderground v.1.15,2013-04-19 17:52:00,
2013-04-19 14:02:00,55.7,54.3,29.88,SSE,165,12.0,24.0,95,0.00,,,0.00,413,Wunderground v.1.15,2013-04-19 18:02:00,
2013-04-19 14:12:00,55.6,54.2,29.87,SE,132,12.0,16.0,95,0.00,,,0.00,288,Wunderground v.1.15,2013-04-19 18:12:00,
2013-04-19 14:22:00,55.4,54.3,29.87,SSE,159,12.0,24.0,96,0.00,,,0.00,241,Wunderground v.1.15,2013-04-19 18:22:00,
2013-04-19 14:32:00,55.4,54.3,29.87,SSE,153,12.0,15.0,96,0.00,,,0.00,169,Wunderground v.1.15,2013-04-19 18:32:00,
2013-04-19 14:42:00,56.3,55.2,29.87,SSE,152,12.0,24.0,96,0.00,,,0.00,188,Wunderground v.1.15,2013-04-19 18:42:00,
2013-04-19 14:52:00,56.0,54.9,29.86,ESE,109,13.0,26.0,96,0.00,,,0.01,137,Wunderground v.1.15,2013-04-19 18:52:00,
2013-04-19 15:02:00,55.6,54.5,29.85,SE,127,13.0,26.0,96,0.00,,,0.01,155,Wunderground v.1.15,2013-04-19 19:02:00,
2013-04-19 15:12:00,55.5,54.4,29.84,SSE,155,13.0,26.0,96,0.00,,,0.01,142,Wunderground v.1.15,2013-04-19 19:12:00,
2013-04-19 15:22:00,55.9,54.8,29.83,SE,134,12.0,25.0,96,0.00,,,0.01,253,Wunderground v.1.15,2013-04-19 19:22:00,
2013-04-19 15:32:00,55.9,55.1,29.83,SSE,157,12.0,25.0,97,0.00,,,0.01,155,Wunderground v.1.15,2013-04-19 19:32:00,
2013-04-19 15:37:00,55.5,54.7,29.82,SE,139,14.0,25.0,97,0.00,,,0.01,162,Wunderground v.1.15,2013-04-19 19:37:00,
2013-04-19 15:47:00,55.3,54.2,29.82,SSE,147,13.0,13.0,96,0.00,,,0.01,172,Wunderground v.1.15,2013-04-19 19:47:00,
2013-04-19 15:57:00,55.1,54.3,29.81,SSE,155,13.0,13.0,97,0.00,,,0.01,181,Wunderground v.1.15,2013-04-19 19:57:00,
2013-04-19 16:07:00,54.7,53.9,29.81,SE,133,12.0,24.0,97,0.00,,,0.01,181,Wunderground v.1.15,2013-04-19 20:07:00,
2013-04-19 16:17:00,55.0,54.2,29.80,SSE,168,13.0,13.0,97,0.00,,,0.01,283,Wunderground v.1.15,2013-04-19 20:17:00,
2013-04-19 16:22:00,55.3,54.5,29.80,SSE,157,12.0,22.0,97,0.00,,,0.01,271,Wunderground v.1.15,2013-04-19 20:22:00,
2013-04-19 16:32:00,55.4,54.6,29.80,SE,146,11.0,22.0,97,0.00,,,0.01,294,Wunderground v.1.15,2013-04-19 20:32:00,
2013-04-19 16:42:00,55.8,55.0,29.79,SE,137,11.0,22.0,97,0.00,,,0.01,304,Wunderground v.1.15,2013-04-19 20:42:00,
2013-04-19 16:52:00,55.5,54.7,29.79,SE,126,13.0,22.0,97,0.00,,,0.01,200,Wunderground v.1.15,2013-04-19 20:52:00,
2013-04-19 17:02:00,55.2,54.4,29.78,South,171,12.0,13.0,97,0.00,,,0.01,225,Wunderground v.1.15,2013-04-19 21:02:00,
2013-04-19 17:07:00,55.0,54.2,29.78,SSE,153,12.0,12.0,97,0.00,,,0.01,186,Wunderground v.1.15,2013-04-19 21:07:00,
2013-04-19 17:17:00,55.0,54.2,29.78,SE,142,13.0,21.0,97,0.00,,,0.01,171,Wunderground v.1.15,2013-04-19 21:17:00,
2013-04-19 17:27:00,54.5,53.7,29.77,SE,128,13.0,13.0,97,0.00,,,0.01,153,Wunderground v.1.15,2013-04-19 21:27:00,
2013-04-19 17:37:00,54.7,53.9,29.77,SSE,154,12.0,22.0,97,0.00,,,0.01,155,Wunderground v.1.15,2013-04-19 21:37:00,
2013-04-19 17:47:00,54.5,53.7,29.77,SE,136,12.0,22.0,97,0.00,,,0.01,69,Wunderground v.1.15,2013-04-19 21:47:00,
2013-04-19 17:57:00,54.7,53.9,29.76,SSE,165,13.0,25.0,97,0.00,,,0.01,63,Wunderground v.1.15,2013-04-19 21:57:00,
2013-04-19 18:07:00,54.6,53.8,29.76,SSE,159,13.0,13.0,97,0.00,,,0.01,79,Wunderground v.1.15,2013-04-19 22:07:00,
2013-04-19 18:12:00,54.4,53.6,29.76,SSE,165,13.0,25.0,97,0.00,,,0.01,35,Wunderground v.1.15,2013-04-19 22:12:00,
2013-04-19 18:22:00,54.7,53.9,29.76,South,169,12.0,24.0,97,0.00,,,0.01,28,Wunderground v.1.15,2013-04-19 22:22:00,
2013-04-19 18:27:00,54.8,54.0,29.76,SE,141,12.0,24.0,97,0.00,,,0.01,28,Wunderground v.1.15,2013-04-19 22:27:00,
2013-04-19 18:37:00,54.7,53.9,29.76,South,184,14.0,14.0,97,0.00,,,0.01,46,Wunderground v.1.15,2013-04-19 22:37:00,
2013-04-19 18:47:00,54.4,53.6,29.75,SE,133,13.0,24.0,97,0.00,,,0.01,35,Wunderground v.1.15,2013-04-19 22:47:00,
2013-04-19 18:57:00,54.5,53.7,29.75,SSE,159,15.0,24.0,97,0.00,,,0.01,18,Wunderground v.1.15,2013-04-19 22:57:00,
2013-04-19 19:07:00,54.5,53.7,29.75,SSE,153,16.0,16.0,97,0.00,,,0.01,11,Wunderground v.1.15,2013-04-19 23:07:00,
2013-04-19 19:12:00,54.4,53.6,29.75,SE,143,15.0,20.0,97,0.00,,,0.01,9,Wunderground v.1.15,2013-04-19 23:12:00,
2013-04-19 19:22:00,54.5,53.7,29.75,SSE,157,16.0,16.0,97,0.00,,,0.01,5,Wunderground v.1.15,2013-04-19 23:22:00,
2013-04-19 19:27:00,54.4,53.6,29.75,SSE,168,15.0,15.0,97,0.00,,,0.01,0,Wunderground v.1.15,2013-04-19 23:27:00,
2013-04-19 19:37:00,54.5,53.7,29.75,South,190,13.0,13.0,97,0.00,,,0.01,0,Wunderground v.1.15,2013-04-19 23:37:00,
2013-04-19 19:47:00,54.8,54.2,29.75,South,171,13.0,13.0,98,0.00,,,0.01,0,Wunderground v.1.15,2013-04-19 23:47:00,
2013-04-19 19:52:00,54.9,54.1,29.75,SE,124,12.0,16.0,97,0.00,,,0.01,0,Wunderground v.1.15,2013-04-19 23:52:00,
2013-04-19 20:02:00,55.1,54.5,29.74,SE,144,13.0,29.0,98,0.00,,,0.01,0,Wunderground v.1.15,2013-04-20 00:02:00,
2013-04-19 20:07:00,55.3,54.7,29.74,SSE,166,13.0,13.0,98,0.00,,,0.01,0,Wunderground v.1.15,2013-04-20 00:07:00,
2013-04-19 20:17:00,55.1,54.3,29.75,South,173,13.0,29.0,97,0.00,,,0.01,0,Wunderground v.1.15,2013-04-20 00:17:00,
2013-04-19 20:27:00,55.3,54.7,29.74,SSE,153,11.0,24.0,98,0.00,,,0.01,0,Wunderground v.1.15,2013-04-20 00:27:00,
2013-04-19 20:37:00,55.2,54.6,29.74,South,179,11.0,24.0,98,0.00,,,0.01,0,Wunderground v.1.15,2013-04-20 00:37:00,
2013-04-19 20:47:00,55.2,54.6,29.74,SSE,156,12.0,24.0,98,0.00,,,0.01,0,Wunderground v.1.15,2013-04-20 00:47:00,
2013-04-19 20:52:00,55.0,54.4,29.73,South,183,11.0,24.0,98,0.00,,,0.01,0,Wunderground v.1.15,2013-04-20 00:52:00,
2013-04-19 21:02:00,55.2,54.6,29.73,SE,146,12.0,21.0,98,0.00,,,0.01,0,Wunderground v.1.15,2013-04-20 01:02:00,
2013-04-19 21:07:00,55.5,54.9,29.73,SSE,165,13.0,21.0,98,0.00,,,0.01,0,Wunderground v.1.15,2013-04-20 01:07:00,
2013-04-19 21:17:00,55.8,55.2,29.72,SE,136,13.0,21.0,98,0.00,,,0.01,0,Wunderground v.1.15,2013-04-20 01:17:00,
2013-04-19 21:27:00,56.0,55.4,29.72,SSE,161,13.0,26.0,98,0.00,,,0.01,0,Wunderground v.1.15,2013-04-20 01:27:00,
2013-04-19 21:37:00,56.0,55.4,29.72,SE,146,15.0,15.0,98,0.00,,,0.01,0,Wunderground v.1.15,2013-04-20 01:37:00,
2013-04-19 21:47:00,56.0,55.4,29.72,SSE,153,17.0,17.0,98,0.00,,,0.01,0,Wunderground v.1.15,2013-04-20 01:47:00,
2013-04-19 21:57:00,55.9,55.3,29.72,SSE,163,15.0,29.0,98,0.00,,,0.01,0,Wunderground v.1.15,2013-04-20 01:57:00,
2013-04-19 22:07:00,55.7,55.1,29.72,South,175,17.0,29.0,98,0.00,,,0.01,0,Wunderground v.1.15,2013-04-20 02:07:00,
2013-04-19 22:17:00,55.7,55.1,29.71,SSE,158,16.0,29.0,98,0.00,,,0.01,0,Wunderground v.1.15,2013-04-20 02:17:00,
2013-04-19 22:27:00,55.7,55.1,29.71,SSE,147,16.0,16.0,98,0.00,,,0.01,0,Wunderground v.1.15,2013-04-20 02:27:00,
2013-04-19 22:32:00,55.7,55.1,29.71,SE,142,16.0,23.0,98,0.00,,,0.01,0,Wunderground v.1.15,2013-04-20 02:32:00,
2013-04-19 22:42:00,55.4,54.8,29.71,SSE,163,16.0,34.0,98,0.00,,,0.01,0,Wunderground v.1.15,2013-04-20 02:42:00,
2013-04-19 22:47:00,55.4,54.8,29.71,South,186,14.0,14.0,98,0.00,,,0.01,0,Wunderground v.1.15,2013-04-20 02:47:00,
2013-04-19 22:57:00,55.6,55.0,29.71,SSE,149,13.0,29.0,98,0.00,,,0.01,0,Wunderground v.1.15,2013-04-20 02:57:00,
2013-04-19 23:07:00,55.8,55.2,29.70,South,169,15.0,15.0,98,0.00,,,0.01,0,Wunderground v.1.15,2013-04-20 03:07:00,
2013-04-19 23:17:00,56.2,55.6,29.71,South,171,17.0,29.0,98,0.00,,,0.01,0,Wunderground v.1.15,2013-04-20 03:17:00,
2013-04-19 23:27:00,56.5,55.9,29.72,South,171,18.0,18.0,98,0.00,,,0.02,0,Wunderground v.1.15,2013-04-20 03:27:00,
2013-04-19 23:32:00,56.6,56.0,29.72,South,170,17.0,21.0,98,0.00,,,0.02,0,Wunderground v.1.15,2013-04-20 03:32:00,
2013-04-19 23:42:00,56.7,56.1,29.71,SSE,161,19.0,29.0,98,0.15,,,0.04,0,Wunderground v.1.15,2013-04-20 03:42:00,
2013-04-19 23:47:00,57.0,56.4,29.72,SE,146,19.0,19.0,98,0.13,,,0.05,0,Wunderground v.1.15,2013-04-20 03:47:00,
2013-04-19 23:57:00,56.3,55.7,29.72,South,180,17.0,17.0,98,0.68,,,0.13,0,Wunderground v.1.15,2013-04-20 03:57:00,